Location: Caltech
(34.1382°N, 118.1253°W)
Time: 10:06:20
(UTC-07:00)

Sapphire - Visible Passes

Search period start: 04 May 2015 00:00
Search period end: 14 May 2015 00:00
Orbit: 786 x 796 km, 67.1° (Epoch: 04 May)

Date Brightness Start Highest point End Pass type
(mag) Time Alt. Az. Time Alt. Az. Time Alt. Az.
05 May ? 05:07:19 10° SSE 05:11:06 20° ESE 05:15:06 10° ENE visible
06 May ? 04:38:08 10° SE 04:40:40 14° ESE 04:43:32 10° ENE visible
08 May ? 05:17:12 10° SSW 05:22:33 66° ESE 05:27:57 10° NNE visible
09 May ? 04:46:56 10° S 04:52:03 46° ESE 04:57:15 10° NE visible
10 May ? 04:16:53 10° S 04:21:35 32° ESE 04:26:24 10° NE visible
11 May ? 03:47:23 11° SSE 03:51:08 23° ESE 03:55:22 10° NE visible
12 May ? 03:18:08 11° SE 03:20:42 16° ESE 03:23:58 10° ENE visible
12 May ? 04:58:53 13° SW 05:03:43 57° WNW 05:09:04 10° NNE visible
13 May ? 02:49:48 10° ESE 02:50:17 10° ESE 02:51:12 10° E visible
13 May ? 04:29:33 22° SSW 04:33:08 80° WNW 04:38:36 10° NNE visible
